User: anonymous   Login
Location: Lawrence Hall of Science
(37.8785°N, 122.2415°W)
Time: 20:39:42
(UTC-07:00)
Language:

Cosmos 2098 Rocket - Orbit

View from above orbital plane
View from above orbital plane
View from above satellite
View from above satellite

Ground track
Ground track

The orbit data is extracted from the following two-line orbital elements,

1 20775U 90078B   16269.03796664  .00002781  00000-0  13671-3 0  9999
2 20775  82.9268 265.2869 0597223  78.2332 288.5188 14.29006531310879
Epoch (UTC): 25 September 2016 00:54:40
Eccentricity: 0.0597223
inclination: 82.9268°
perigee height: 366 km
apogee height: 1223 km
right ascension of ascending node: 265.2869°
argument of perigee: 78.2332°
revolutions per day: 14.29006531
mean anomaly at epoch: 288.5188°
orbit number at epoch: 31087

The dashed part of the orbit path shows where the satellite is in the earth's shadow,  

DLR